Location: Austin
(30.3000°N, 97.7500°W)
Time: 23:06:06
(UTC-06:00)

Delta 2 Rocket - Pass Details

Date: 03 December 2025
Orbit: 356 x 508 km, 35.6° (Epoch: 07 December)

Event Time Altitude Azimuth Distance (km) Brightness Sun altitude
Exits shadow 06:31:57 12° 297° (WNW) 1,203 4.4 -8.7°
Maximum altitude 06:34:14 28° 356° (N) 699 3.6 -8.3°
Drops below altitude 10° 06:36:52 10° 58° (ENE) 1,320 5.8 -7.7°
Sets 06:39:04 0° 71° (ENE) 2,167 7.2 -7.3°
